Location: Grambois
(43.7619°N, 5.5873°E)
Time: 07:17:54
(UTC+00:00)

Meteor 2-10 Rocket - Pass Details

Date: 07 June 2020
Orbit: 733 x 885 km, 81.2° (Epoch: 04 July)

Event Time Altitude Azimuth Distance (km) Brightness Sun altitude
Rises 00:26:58 0° 346° (NNW) 3,238 7.8 -22.5°
Reaches altitude 10° 00:29:22 10° 343° (NNW) 2,289 6.8 -22.4°
Maximum altitude 00:34:24 61° 264° (W) 844 3.5 -22.1°
Enters shadow 00:35:15 52° 221° (SW) 915 3.5 -22.1°
